Theta_e
310 310 310 309 310 311 310 311 313 312 314 314 315 316 314 312 312 311 312 312 313 312 312 313 315 318 319 319 320 321 321 320 319 316 313 311 309 305 303 304 301 301 303 305
302 308 309 308 310 311 311 312 313 314 315 315 315 315 314 313 313 312 310 312 313 313 313 315 315 316 315 315 313 314 315 314 312 308 306 305 300 300 299 299 301 304 302 296
305 310 311 313 313 312 313 314 315 319 317 316 316 316 310 308 306 308 311 312 312 312 312 312 312 312 309 308 307 307 307 304 302 300 299 298 299 299 301 301 299 299 301 298
306 308 313 315 314 315 315 315 314 316 316 315 314 309 306 303 302 305 312 310 309 308 306 304 305 306 304 303 302 302 300 297 296 296 298 298 299 299 299 301 301 298 295 296
312 310 311 317 316 316 315 314 316 315 314 313 312 311 306 302 301 301 305 305 303 302 301 302 302 301 302 300 299 297 294 296 296 296 298 301 301 301 303 302 299 291 292 293
313 311 315 316 314 314 313 316 313 313 313 312 310 314 308 301 298 299 299 301 303 303 300 298 295 296 298 295 295 296 297 297 299 301 301 301 303 301 296 292 292 294 291 291
313 315 311 310 312 315 318 315 311 312 312 308 309 307 302 300 297 297 297 297 296 296 297 296 295 296 296 297 299 299 299 300 300 300 301 300 298 293 296 297 291 290 290 290
315 314 313 311 314 318 313 312 311 312 311 306 305 303 302 301 300 298 296 295 296 295 297 297 298 299 299 298 299 300 300 300 300 297 294 292 299 296 290 290 290 290 289 287
311 311 310 313 314 312 311 310 309 310 312 310 305 302 300 299 299 300 299 298 299 299 298 298 298 300 300 300 300 300 299 296 294 295 300 293 290 290 290 290 291 288 286 286
314 315 313 313 311 310 309 308 307 309 313 310 307 303 300 298 298 298 300 300 299 300 300 299 300 300 300 298 297 295 293 295 297 294 290 289 290 290 290 288 286 286 285 284
313 312 312 311 311 310 308 307 307 308 311 310 308 305 304 300 297 297 297 298 299 298 298 297 297 295 294 294 294 296 297 293 291 290 289 289 290 289 287 286 286 285 284 283
314 313 313 312 311 309 308 307 306 307 307 305 305 303 301 300 299 298 298 296 296 296 296 294 294 295 294 294 295 296 294 291 289 289 289 289 286 286 285 285 284 283 283 282
312 314 314 313 311 308 307 305 305 305 305 303 301 301 299 297 297 296 298 298 297 296 295 294 294 293 293 293 293 292 291 289 289 289 288 287 287 286 285 284 283 282 282 282
314 314 312 311 311 308 307 305 303 302 302 302 301 300 299 298 296 297 296 295 294 294 293 294 293 293 292 292 291 290 289 289 290 288 287 287 286 285 284 283 283 282 282 281
313 313 313 313 310 307 305 304 303 302 300 299 298 300 299 298 297 296 295 295 295 294 294 294 294 293 291 290 289 289 290 290 288 287 287 286 284 283 283 282 282 281 281 281
311 311 310 309 308 306 304 302 303 301 299 299 298 298 298 297 296 296 295 294 295 295 294 295 295 292 290 289 289 291 290 288 287 286 285 284 283 283 282 282 281 281 280 280
311 309 308 307 306 305 304 304 304 302 300 298 299 298 297 296 296 295 294 294 295 295 295 295 295 291 289 290 291 289 288 287 286 285 284 283 283 282 282 281 281 280 280 280
309 309 310 310 308 305 303 303 302 302 302 300 299 298 297 296 297 295 294 294 295 294 293 292 291 289 290 291 289 287 286 286 285 284 283 283 282 281 281 281 280 280 280 280
308 309 310 309 307 306 305 303 302 303 301 300 300 298 298 297 297 296 295 295 296 295 292 290 289 290 291 289 287 286 286 285 284 283 283 282 281 281 281 280 280 280 280 279
307 307 307 308 311 309 307 303 304 303 302 300 300 299 297 297 296 296 295 296 295 294 292 289 289 291 289 287 286 286 285 284 283 283 282 282 281 281 280 280 280 280 279 279
304 306 306 307 309 307 305 304 304 303 301 300 300 299 298 297 296 296 295 295 292 291 290 289 290 289 287 286 286 285 284 283 282 282 282 281 281 281 280 280 280 279 279 279
303 304 304 304 305 304 304 303 302 302 301 300 298 298 298 297 296 295 295 295 293 290 289 290 290 287 286 286 285 285 283 283 282 282 282 281 281 281 280 280 280 280 280 279
301 302 303 302 302 303 302 301 300 300 301 300 299 298 298 297 297 296 294 292 291 290 289 290 288 286 286 285 285 284 283 282 282 282 281 281 281 281 280 280 280 280 280 280
301 301 301 300 300 300 300 299 299 298 298 298 297 297 297 297 295 294 293 293 290 290 290 289 287 286 286 285 284 283 282 282 282 281 281 281 281 280 280 280 280 280 280 280
300 300 299 299 299 298 298 298 297 296 296 296 296 296 296 296 296 295 293 292 290 289 290 287 286 286 285 285 283 282 282 282 282 281 281 281 281 280 280 280 280 280 280 280
299 299 298 297 297 297 297 296 296 295 295 295 295 295 295 295 294 293 292 290 290 290 288 287 286 286 285 284 283 282 282 282 282 281 281 281 280 280 280 280 280 281 281 282
297 297 297 297 297 296 295 295 296 295 295 295 296 295 294 295 293 292 291 290 289 289 287 286 286 285 285 283 282 282 282 282 281 281 281 281 280 280 280 281 282 283 283 283
Wind_Speed
4 6 4 6 7 9 11 18 9 24 22 22 21 20 20 9 17 18 22 23 22 22 13 8 10 13 16 23 28 31 30 27 28 27 26 27 30 32 32 29 26 22 18 13
5 8 8 6 11 12 12 16 17 23 26 15 17 27 15 12 16 19 25 21 8 6 5 8 13 17 22 25 26 26 26 24 24 25 29 32 34 32 28 24 22 18 13 12
4 4 6 5 7 12 7 5 6 7 10 14 17 12 12 15 18 19 17 9 7 6 9 14 18 20 20 20 20 20 21 22 26 29 33 35 31 27 24 22 18 15 11 6
3 4 1 5 4 6 10 8 7 7 12 11 15 9 15 16 15 18 5 4 11 11 14 18 20 20 18 17 18 20 24 28 31 32 30 28 27 25 21 16 12 7 7 6
2 2 6 1 2 2 3 4 2 5 9 12 14 6 7 14 12 10 11 13 13 14 15 16 16 18 17 18 21 25 28 27 27 28 27 25 24 21 16 11 9 8 4 3
2 1 3 3 4 3 4 3 2 4 6 8 10 3 2 9 8 9 11 11 11 11 12 13 17 20 21 24 22 23 23 26 24 24 23 21 17 16 14 10 7 3 4 5
6 4 6 8 6 8 1 4 2 3 2 5 2 2 3 5 9 10 9 10 12 13 15 16 14 13 19 20 22 24 26 27 23 18 16 14 14 14 10 6 6 4 4 5
4 3 7 5 5 1 3 4 3 2 5 9 9 9 10 13 12 10 12 14 13 17 18 18 20 22 30 31 30 27 23 21 20 17 19 15 8 7 8 4 2 3 5 7
7 6 7 5 4 3 5 4 2 4 8 10 12 12 12 14 15 18 15 16 19 20 21 23 26 25 27 26 23 21 20 20 18 15 11 10 8 6 3 2 3 5 6 9
3 5 9 4 1 2 4 2 1 6 11 11 14 16 16 15 16 19 20 21 22 22 23 23 23 22 22 24 23 21 20 17 13 12 12 9 5 3 1 1 3 6 9 11
4 6 3 2 1 3 3 1 3 7 11 12 12 16 18 20 20 18 18 20 20 22 24 24 24 25 23 21 20 18 16 16 14 11 8 5 3 1 1 4 8 10 12 12
4 4 2 2 3 3 3 1 4 9 12 11 12 17 20 22 24 23 22 21 21 22 23 24 24 23 22 19 17 16 15 13 11 8 6 4 3 4 7 10 11 13 14 14
6 6 4 3 4 3 3 3 5 8 10 15 15 19 22 24 21 20 22 24 25 26 27 27 25 22 19 17 14 12 12 11 8 6 4 4 5 7 8 9 10 10 11 12
11 7 4 8 4 4 4 6 9 10 11 13 18 20 22 23 22 21 23 25 27 28 27 24 22 20 17 14 12 10 9 7 5 5 5 7 9 10 11 12 13 13 12 13
4 8 8 7 7 7 7 10 12 13 14 16 17 20 21 22 23 24 26 28 27 26 24 21 19 18 14 11 8 7 6 5 5 6 7 9 10 10 11 13 14 15 15 14
2 4 5 6 8 10 12 14 13 15 15 17 19 20 20 23 25 27 27 26 26 25 21 18 15 15 12 9 5 4 4 4 5 6 8 9 10 12 13 14 15 16 16 17
9 5 8 9 12 14 15 14 12 16 17 19 19 21 23 26 26 26 25 23 21 20 17 14 13 12 9 6 3 3 3 4 5 7 9 11 12 14 15 15 15 16 16 16
15 11 10 11 12 16 17 15 15 17 18 19 21 23 25 27 28 27 26 24 22 20 16 13 11 9 6 4 3 2 3 5 7 9 10 12 13 14 14 15 15 15 16 15
5 10 11 6 9 15 16 16 19 17 19 22 24 26 25 25 25 25 24 22 20 19 17 13 10 7 5 3 2 2 4 7 8 9 11 12 12 13 14 14 15 15 15 15
3 4 5 7 10 14 16 18 19 19 21 24 25 26 27 25 23 23 22 20 16 13 15 12 9 6 4 2 1 3 6 7 9 10 11 12 13 13 13 14 15 14 13 14
7 3 4 8 10 12 16 18 21 23 25 25 26 26 26 24 23 23 23 22 19 15 13 11 8 6 4 1 2 4 7 8 9 10 12 12 12 12 13 13 13 13 13 14
7 4 2 7 12 14 16 19 21 23 26 27 27 25 26 25 24 22 19 15 18 16 13 10 7 6 3 2 3 5 7 8 9 11 11 12 12 13 12 12 13 12 13 13
7 4 3 7 11 13 16 19 22 24 27 28 28 27 26 24 24 25 23 19 16 14 12 10 8 5 3 3 5 7 7 9 10 11 12 13 13 12 12 13 13 13 13 12
7 5 5 6 8 12 17 19 21 24 25 26 26 26 25 25 24 21 16 16 17 14 12 10 8 5 3 4 6 7 8 10 11 11 12 13 13 12 12 13 12 12 12 11
9 7 5 7 8 11 15 19 21 24 26 26 26 25 24 22 20 22 19 18 17 15 12 10 8 5 4 6 7 7 9 11 12 12 13 13 12 12 12 13 12 12 10 9
9 7 6 7 9 11 15 19 23 26 28 29 28 27 25 22 21 19 19 18 17 15 13 10 7 5 5 7 7 8 10 12 12 13 13 13 12 12 13 11 10 10 10 10
11 9 8 9 12 13 15 19 23 27 29 29 29 29 26 25 23 21 20 20 17 14 12 10 8 6 6 7 8 9 11 12 13 13 13 12 12 13 11 10 10 11 11 10
Wind_Direction
275 260 235 216 230 227 217 241 242 277 277 286 297 299 295 285 318 300 315 324 298 290 281 251 241 239 213 197 187 184 183 189 194 191 190 186 184 181 180 179 173 172 173 185
281 257 235 246 243 235 241 253 248 263 275 285 299 305 318 336 315 284 284 311 291 199 194 194 200 193 179 173 170 173 176 179 182 181 179 177 174 172 166 161 163 164 160 172
271 327 338 284 236 214 223 209 205 273 289 305 307 320 15 355 339 311 287 296 212 186 193 179 170 176 164 159 160 164 166 165 167 169 169 167 164 160 155 153 151 152 185 198
260 358 307 241 244 200 214 236 210 274 282 313 309 104 32 15 3 14 343 150 158 158 153 148 151 155 154 154 154 159 161 160 162 167 157 152 149 142 144 155 155 142 144 208
282 252 278 336 147 240 228 281 204 269 294 312 330 168 42 12 22 52 105 132 135 137 138 143 147 151 159 154 159 159 153 157 150 150 147 145 144 146 152 157 150 180 176 256
352 305 261 201 277 242 120 277 244 232 306 331 355 333 17 359 52 69 84 106 133 143 142 146 143 155 158 145 148 147 152 146 148 143 137 144 149 143 129 134 150 206 238 264
232 260 283 252 285 154 24 257 344 226 334 4 86 88 72 69 85 92 108 119 131 140 146 148 151 157 142 143 140 140 143 137 133 140 143 141 127 116 143 152 184 216 268 296
182 210 264 245 304 258 234 262 311 189 143 113 122 129 108 86 82 104 109 119 125 134 132 133 135 140 137 139 140 136 133 139 142 133 117 123 144 129 151 163 205 260 307 313
196 210 242 320 258 238 295 288 238 166 172 153 150 145 126 121 115 98 107 126 116 117 121 125 128 133 133 135 133 135 132 131 132 142 133 126 143 148 161 223 300 311 310 313
122 253 249 213 112 339 337 344 228 173 182 172 156 157 149 139 132 128 127 126 128 128 128 133 141 141 133 134 140 135 135 140 139 134 141 145 152 159 199 312 313 318 323 323
263 290 115 172 4 336 331 50 147 176 188 191 166 155 155 155 154 146 140 138 140 135 135 138 145 147 145 138 136 146 149 144 142 142 142 144 144 112 9 338 339 337 334 334
229 242 193 226 273 290 275 169 151 177 172 177 180 163 156 148 153 158 157 158 156 150 145 143 145 139 140 146 154 150 142 140 139 141 137 116 73 22 354 343 340 339 343 346
247 216 241 219 254 255 236 173 158 169 171 168 168 168 165 159 159 156 154 157 157 152 147 143 143 141 141 142 142 140 138 137 132 115 89 55 12 353 347 345 344 338 330 326
290 225 220 236 255 221 204 169 160 155 156 161 163 168 168 164 161 161 158 157 153 149 146 145 141 137 138 141 142 134 124 109 90 66 33 8 354 347 345 342 340 340 341 338
235 235 252 255 210 202 189 172 161 158 162 161 168 170 171 164 160 158 157 157 154 151 148 148 146 138 135 134 134 118 97 78 55 26 5 353 348 347 346 344 343 343 340 339
314 244 234 233 209 197 188 175 174 170 169 168 170 169 168 164 159 157 155 158 159 155 150 151 146 137 137 135 124 101 76 55 26 4 355 353 353 350 346 346 345 344 344 345
277 247 237 239 219 205 197 187 191 176 171 173 169 166 163 160 156 154 155 157 161 153 150 153 149 139 137 131 117 91 58 28 7 360 359 357 352 347 347 346 347 347 345 345
253 255 283 283 238 205 191 195 190 185 180 175 169 166 164 163 159 158 159 160 160 155 155 154 147 141 143 137 113 73 33 10 2 360 359 352 348 348 347 349 347 345 344 345
268 251 264 251 210 201 199 195 195 189 182 177 173 171 169 167 165 163 163 165 168 166 159 156 155 156 149 134 104 33 6 358 356 356 354 350 348 349 349 349 347 346 344 345
329 264 256 221 189 198 198 204 197 190 185 181 177 172 170 170 169 167 166 168 170 171 164 162 163 162 162 152 50 356 352 351 353 352 349 349 350 349 348 346 344 342 342 344
359 319 253 230 217 209 212 211 200 192 188 185 181 178 176 172 173 174 172 175 172 172 170 169 169 175 175 183 328 343 347 348 347 346 347 349 347 346 344 342 340 340 341 341
354 341 247 222 222 218 214 212 205 200 192 185 185 186 182 178 177 178 184 191 181 174 176 177 181 186 198 262 328 337 339 340 340 343 346 344 341 339 339 339 338 338 337 337
346 329 266 232 228 225 216 210 209 207 199 192 190 190 189 188 184 183 183 184 187 180 182 187 191 197 223 293 322 328 331 334 338 341 342 339 334 334 338 337 333 333 332 327
345 323 279 244 226 220 214 207 208 206 204 198 196 196 193 189 187 189 194 188 183 188 190 193 197 211 253 301 315 322 327 331 333 337 338 332 331 333 333 331 327 325 324 316
341 323 289 266 248 230 219 213 205 202 201 201 199 197 195 197 203 192 190 192 190 192 195 196 204 223 268 295 309 315 323 325 329 334 332 329 329 331 331 326 325 325 324 315
338 321 286 260 258 245 227 217 211 205 201 199 197 194 191 194 197 200 195 195 193 194 196 203 212 235 271 295 306 314 319 324 328 326 325 325 327 331 328 326 328 324 321 315
323 313 291 265 251 242 234 227 219 213 208 205 199 191 188 198 197 198 199 195 195 197 200 206 219 246 280 297 305 312 318 322 320 322 325 324 327 327 323 324 326 322 319 315